Tracking 29892 objects as of 21-Nov-2024
HD Live streaming from Space Station
objects crossing your sky now

STARLINK-4510

Track STARLINK-4510 now!
10-day predictions
STARLINK-4510 is classified as:


NORAD ID: 53405
Int'l Code: 2022-097T
Perigee: 546.0 km
Apogee: 547.8 km
Inclination: 53.2 °
Period: 95.4 minutes
Semi major axis: 6917 km
RCS: Unknown
Launch date: August 10, 2022
Source: United States (US)
Launch site: AIR FORCE EASTERN TEST RANGE (AFETR)
Your satellite tracking list
Your tracking list is empty




NASA's NSSDC Master Catalog

Two Line Element Set (TLE):
1 53405U 22097T   24325.77939720 -.00001246  00000-0 -60189-4 0  9990
2 53405  53.2161  91.5849 0001276  85.7291 274.3847 15.08836057126974
Source of the keplerian elements: AFSPC